| time (UTC) | temp F | wind direction | speed knots | gust knots | rain 1hr in | rain 24hr in | rain mn in | humidity % | barometer mb |
| 20260507084016 | 48 | 343 | 1.7 | 2.6 | 0.00 | 0.00 | 0.00 | 69 | 1016.6 |
| 20260507083516 | 48 | 343 | 0.9 | 2.6 | 0.00 | 0.00 | 0.00 | 69 | 1016.6 |
| 20260507083016 | 48 | 343 | 0.9 | 3.5 | 0.00 | 0.00 | 0.00 | 68 | 1016.6 |
| 20260507082516 | 48 | 343 | 0.9 | 3.5 | 0.00 | 0.00 | 0.00 | 68 | 1016.6 |
| 20260507082015 | 48 | 344 | 1.7 | 4.3 | 0.00 | 0.00 | 0.00 | 69 | 1016.5 |
| 20260507081516 | 48 | 344 | 2.6 | 4.3 | 0.00 | 0.00 | 0.00 | 69 | 1016.6 |
| 20260507081015 | 48 | 351 | 1.7 | 4.3 | 0.00 | 0.00 | 0.00 | 69 | 1016.5 |
| 20260507080515 | 48 | 355 | 1.7 | 3.5 | 0.00 | 0.00 | 0.00 | 69 | 1016.5 |
| 20260507080014 | 47 | 355 | 1.7 | 3.5 | 0.00 | 0.00 | 0.00 | 70 | 1016.5 |
| 20260507075517 | 47 | 355 | 1.7 | 3.5 | 0.00 | 0.00 | 0.00 | 70 | 1016.5 |
| 20260507075017 | 47 | 355 | 1.7 | 3.5 | 0.00 | 0.00 | 0.00 | 70 | 1016.4 |
| 20260507074514 | 47 | 355 | 1.7 | 4.3 | 0.00 | 0.00 | 0.00 | 69 | 1016.4 |
| 20260507074012 | 48 | 355 | 1.7 | 4.3 | 0.00 | 0.00 | 0.00 | 69 | 1016.4 |
| 20260507073512 | 48 | 355 | 2.6 | 4.3 | 0.00 | 0.00 | 0.00 | 68 | 1016.5 |
| 20260507073012 | 48 | 355 | 2.6 | 4.3 | 0.00 | 0.00 | 0.00 | 68 | 1016.5 |
| 20260507072512 | 48 | 360 | 1.7 | 4.3 | 0.00 | 0.00 | 0.00 | 69 | 1016.6 |
| 20260507072009 | 48 | 360 | 1.7 | 3.5 | 0.00 | 0.00 | 0.00 | 69 | 1016.7 |
| 20260507071509 | 48 | 360 | 1.7 | 3.5 | 0.00 | 0.00 | 0.00 | 69 | 1016.7 |
| 20260507071008 | 48 | 360 | 1.7 | 3.5 | 0.00 | 0.00 | 0.00 | 69 | 1016.7 |
| 20260507070508 | 48 | 360 | 1.7 | 3.5 | 0.00 | 0.00 | 0.00 | 68 | 1016.7 |
| 20260507070010 | 48 | 15 | 1.7 | 4.3 | 0.00 | 0.00 | 0.00 | 68 | 1016.8 |
| 20260507065506 | 48 | 9 | 2.6 | 4.3 | 0.00 | 0.00 | 0.00 | 68 | 1016.8 |
| 20260507065007 | 48 | 360 | 3.5 | 5.2 | 0.00 | 0.00 | 0.00 | 68 | 1017.0 |
| 20260507064505 | 49 | 9 | 3.5 | 7.0 | 0.00 | 0.00 | 0.00 | 67 | 1016.9 |
| 20260507064005 | 49 | 355 | 3.5 | 7.0 | 0.00 | 0.00 | 0.00 | 67 | 1017.1 |
| 20260507063505 | 49 | 360 | 2.6 | 7.0 | 0.00 | 0.00 | 0.00 | 67 | 1017.2 |
| 20260507063005 | 49 | 360 | 3.5 | 7.0 | 0.00 | 0.00 | 0.00 | 67 | 1017.0 |
| 20260507062502 | 49 | 355 | 4.3 | 7.0 | 0.00 | 0.00 | 0.00 | 67 | 1017.1 |
| 20260507062002 | 49 | 350 | 4.3 | 7.0 | 0.00 | 0.00 | 0.00 | 67 | 1017.1 |
| 20260507061502 | 49 | 5 | 4.3 | 7.0 | 0.00 | 0.00 | 0.00 | 67 | 1017.1 |
| 20260507061002 | 49 | 14 | 4.3 | 7.8 | 0.00 | 0.00 | 0.00 | 67 | 1017.0 |
| 20260507060502 | 49 | 5 | 4.3 | 7.8 | 0.00 | 0.00 | 0.00 | 67 | 1017.2 |
| 20260507060100 | 49 | 355 | 3.5 | 7.0 | 0.00 | 0.00 | 0.00 | 67 | 1017.2 |
| 20260507055603 | 49 | 355 | 4.3 | 7.0 | 0.00 | 0.00 | 0.00 | 67 | 1017.0 |
| 20260507055059 | 49 | 13 | 2.6 | 3.5 | 0.00 | 0.00 | 0.00 | 67 | 1017.1 |
| 20260507054558 | 49 | 13 | 2.6 | 3.5 | 0.00 | 0.00 | 0.00 | 66 | 1017.0 |
| 20260507054057 | 49 | 13 | 1.7 | 4.3 | 0.00 | 0.00 | 0.00 | 66 | 1017.2 |
| 20260507053556 | 50 | 15 | 3.5 | 5.2 | 0.00 | 0.00 | 0.00 | 66 | 1017.0 |
| 20260507053059 | 50 | 22 | 3.5 | 4.3 | 0.00 | 0.00 | 0.00 | 66 | 1017.0 |
| 20260507052553 | 50 | 26 | 2.6 | 3.5 | 0.00 | 0.00 | 0.00 | 65 | 1017.1 |
| 20260507052053 | 50 | 26 | 2.6 | 3.5 | 0.00 | 0.00 | 0.00 | 65 | 1017.0 |
| 20260507051552 | 50 | 26 | 1.7 | 3.5 | 0.00 | 0.00 | 0.00 | 65 | 1017.0 |
| 20260507051052 | 50 | 26 | 2.6 | 4.3 | 0.00 | 0.00 | 0.00 | 65 | 1016.9 |
| 20260507050551 | 51 | 26 | 2.6 | 7.0 | 0.00 | 0.00 | 0.00 | 64 | 1016.8 |
| 20260507050049 | 51 | 24 | 3.5 | 7.0 | 0.00 | 0.00 | 0.00 | 64 | 1016.8 |
| 20260507045549 | 51 | 11 | 4.3 | 7.0 | 0.00 | 0.00 | 0.00 | 63 | 1016.7 |
| 20260507045049 | 51 | 16 | 5.2 | 7.0 | 0.00 | 0.00 | 0.00 | 63 | 1016.7 |
| 20260507044549 | 51 | 13 | 3.5 | 7.8 | 0.00 | 0.00 | 0.00 | 63 | 1016.9 |
| 20260507044047 | 52 | 5 | 4.3 | 7.8 | 0.00 | 0.00 | 0.00 | 62 | 1016.8 |
| 20260507043547 | 52 | 13 | 4.3 | 7.8 | 0.00 | 0.00 | 0.00 | 63 | 1016.7 |
| 20260507043047 | 52 | 5 | 5.2 | 7.8 | 0.00 | 0.00 | 0.00 | 63 | 1016.7 |
| 20260507042546 | 51 | 5 | 4.3 | 7.0 | 0.00 | 0.00 | 0.00 | 64 | 1016.7 |
| 20260507042046 | 51 | 9 | 5.2 | 7.0 | 0.00 | 0.00 | 0.00 | 64 | 1016.7 |
| 20260507041548 | 51 | 9 | 3.5 | 7.0 | 0.00 | 0.00 | 0.00 | 65 | 1016.7 |
| 20260507041051 | 50 | 14 | 3.5 | 7.0 | 0.00 | 0.00 | 0.00 | 66 | 1016.3 |
| 20260507040543 | 50 | 39 | 2.6 | 5.2 | 0.00 | 0.00 | 0.00 | 66 | 1016.2 |
| 20260507040044 | 50 | 51 | 3.5 | 4.3 | 0.00 | 0.00 | 0.00 | 66 | 1016.0 |
| 20260507035542 | 51 | 55 | 1.7 | 4.3 | 0.00 | 0.00 | 0.00 | 65 | 1016.0 |
| 20260507035041 | 51 | 55 | 3.5 | 4.3 | 0.00 | 0.00 | 0.00 | 65 | 1015.8 |
| 20260507034541 | 51 | 56 | 2.6 | 3.5 | 0.00 | 0.00 | 0.00 | 64 | 1015.7 |
| 20260507034040 | 52 | 56 | 2.6 | 4.3 | 0.00 | 0.00 | 0.00 | 63 | 1015.6 |
| 20260507033543 | 52 | 56 | 3.5 | 4.3 | 0.00 | 0.00 | 0.00 | 63 | 1015.6 |
| 20260507033040 | 52 | 57 | 2.6 | 4.3 | 0.00 | 0.00 | 0.00 | 62 | 1015.5 |
| 20260507032539 | 53 | 57 | 2.6 | 4.3 | 0.00 | 0.00 | 0.00 | 61 | 1015.4 |
| 20260507032038 | 53 | 58 | 2.6 | 4.3 | 0.00 | 0.00 | 0.00 | 61 | 1015.3 |
| 20260507031536 | 54 | 58 | 1.7 | 3.5 | 0.00 | 0.00 | 0.00 | 60 | 1015.1 |
| 20260507031038 | 54 | 59 | 1.7 | 5.2 | 0.00 | 0.00 | 0.00 | 60 | 1015.1 |
| 20260507030535 | 54 | 59 | 3.5 | 6.1 | 0.00 | 0.00 | 0.00 | 59 | 1015.0 |
| 20260507030034 | 54 | 59 | 4.3 | 6.1 | 0.00 | 0.00 | 0.00 | 59 | 1014.7 |
| 20260507025533 | 55 | 51 | 3.5 | 6.1 | 0.00 | 0.00 | 0.00 | 59 | 1014.6 |
| 20260507025034 | 55 | 61 | 3.5 | 7.0 | 0.00 | 0.00 | 0.00 | 58 | 1014.5 |
| 20260507024534 | 55 | 64 | 3.5 | 7.8 | 0.00 | 0.00 | 0.00 | 57 | 1014.4 |
| 20260507024035 | 55 | 66 | 4.3 | 8.7 | 0.00 | 0.00 | 0.00 | 57 | 1014.3 |
| 20260507023533 | 56 | 62 | 6.1 | 8.7 | 0.00 | 0.00 | 0.00 | 56 | 1014.0 |
| 20260507023037 | 56 | 63 | 5.2 | 7.0 | 0.00 | 0.00 | 0.00 | 55 | 1014.1 |
| 20260507022533 | 57 | 68 | 3.5 | 7.0 | 0.00 | 0.00 | 0.00 | 55 | 1014.2 |
| 20260507022034 | 57 | 71 | 3.5 | 7.0 | 0.00 | 0.00 | 0.00 | 54 | 1014.3 |
| 20260507021534 | 57 | 64 | 4.3 | 7.8 | 0.00 | 0.00 | 0.00 | 53 | 1014.2 |
| 20260507021034 | 58 | 65 | 5.2 | 8.7 | 0.00 | 0.00 | 0.00 | 53 | 1013.9 |
| 20260507020532 | 58 | 63 | 7.0 | 8.7 | 0.00 | 0.00 | 0.00 | 52 | 1013.8 |
| 20260507020043 | 58 | 57 | 6.1 | 8.7 | 0.00 | 0.00 | 0.00 | 52 | 1013.9 |
| 20260507015532 | 58 | 57 | 5.2 | 8.7 | 0.00 | 0.00 | 0.00 | 52 | 1013.8 |
| 20260507015032 | 58 | 53 | 4.3 | 8.7 | 0.00 | 0.00 | 0.00 | 52 | 1013.7 |
| 20260507014533 | 59 | 57 | 5.2 | 8.7 | 0.00 | 0.00 | 0.00 | 51 | 1013.6 |
| 20260507014032 | 59 | 51 | 5.2 | 8.7 | 0.00 | 0.00 | 0.00 | 50 | 1013.6 |
| 20260507013532 | 59 | 53 | 6.1 | 8.7 | 0.00 | 0.00 | 0.00 | 50 | 1013.4 |
| 20260507013046 | 60 | 59 | 6.1 | 10.4 | 0.00 | 0.00 | 0.00 | 49 | 1013.4 |
| 20260507012531 | 60 | 58 | 6.1 | 10.4 | 0.00 | 0.00 | 0.00 | 49 | 1013.4 |
| 20260507012032 | 61 | 55 | 6.1 | 10.4 | 0.00 | 0.00 | 0.00 | 48 | 1013.4 |
| 20260507011533 | 61 | 59 | 7.8 | 11.3 | 0.00 | 0.00 | 0.00 | 48 | 1013.3 |
| 20260507011030 | 61 | 50 | 7.8 | 11.3 | 0.00 | 0.00 | 0.00 | 47 | 1013.2 |
| 20260507010530 | 62 | 61 | 7.0 | 12.2 | 0.00 | 0.00 | 0.00 | 46 | 1013.1 |
| 20260507010035 | 62 | 51 | 8.7 | 12.2 | 0.00 | 0.00 | 0.00 | 46 | 1013.1 |
| 20260507005530 | 62 | 57 | 7.8 | 11.3 | 0.00 | 0.00 | 0.00 | 46 | 1013.1 |
| 20260507005029 | 62 | 54 | 7.0 | 10.4 | 0.00 | 0.00 | 0.00 | 46 | 1013.1 |
| 20260507004529 | 63 | 61 | 6.1 | 13.0 | 0.00 | 0.00 | 0.00 | 45 | 1013.1 |
| 20260507004029 | 63 | 34 | 7.0 | 13.0 | 0.00 | 0.00 | 0.00 | 45 | 1013.1 |
| 20260507003529 | 63 | 64 | 8.7 | 13.0 | 0.00 | 0.00 | 0.00 | 45 | 1013.0 |
| 20260507003040 | 63 | 68 | 9.6 | 13.0 | 0.00 | 0.00 | 0.00 | 45 | 1013.0 |
| 20260507002528 | 63 | 26 | 7.8 | 14.8 | 0.00 | 0.00 | 0.00 | 45 | 1012.9 |
| 20260507002030 | 64 | 64 | 10.4 | 13.9 | 0.00 | 0.00 | 0.00 | 45 | 1012.9 |
| 20260507001528 | 64 | 63 | 7.8 | 13.9 | 0.00 | 0.00 | 0.00 | 45 | 1012.9 |
| 20260507001027 | 64 | 57 | 9.6 | 13.0 | 0.00 | 0.00 | 0.00 | 45 | 1012.8 |
| 20260507000527 | 64 | 51 | 7.8 | 13.0 | 0.00 | 0.00 | 0.00 | 45 | 1012.8 |
| 20260507000033 | 64 | 29 | 8.7 | 14.8 | 0.00 | 0.00 | 0.00 | 45 | 1012.9 |
| 20260506235528 | 64 | 71 | 10.4 | 14.8 | 0.00 | 0.00 | 0.00 | 44 | 1012.9 |
| 20260506235026 | 64 | 58 | 7.0 | 13.0 | 0.00 | 0.00 | 0.00 | 45 | 1012.8 |
| 20260506234527 | 64 | 45 | 9.6 | 13.0 | 0.00 | 0.00 | 0.00 | 45 | 1012.8 |
| 20260506234026 | 64 | 25 | 8.7 | 13.0 | 0.00 | 0.00 | 0.00 | 45 | 1012.8 |
| 20260506233526 | 64 | 49 | 8.7 | 14.8 | 0.00 | 0.00 | 0.00 | 45 | 1012.7 |
| 20260506233027 | 65 | 33 | 10.4 | 14.8 | 0.00 | 0.00 | 0.00 | 44 | 1012.7 |
| 20260506232524 | 65 | 60 | 8.7 | 13.9 | 0.00 | 0.00 | 0.00 | 45 | 1012.7 |
| 20260506232024 | 65 | 59 | 9.6 | 13.9 | 0.00 | 0.00 | 0.00 | 44 | 1012.8 |
| 20260506231524 | 65 | 37 | 6.1 | 11.3 | 0.00 | 0.00 | 0.00 | 45 | 1012.8 |
| 20260506231025 | 65 | 343 | 8.7 | 14.8 | 0.00 | 0.00 | 0.00 | 44 | 1012.9 |
| 20260506230523 | 65 | 24 | 9.6 | 14.8 | 0.00 | 0.00 | 0.00 | 44 | 1012.9 |
| 20260506230023 | 65 | 54 | 7.8 | 13.0 | 0.00 | 0.00 | 0.00 | 44 | 1013.0 |
| 20260506225523 | 65 | 51 | 8.7 | 13.0 | 0.00 | 0.00 | 0.00 | 45 | 1012.8 |
| 20260506225023 | 65 | 36 | 8.7 | 13.0 | 0.00 | 0.00 | 0.00 | 45 | 1012.7 |
| 20260506224522 | 65 | 57 | 7.8 | 12.2 | 0.00 | 0.00 | 0.00 | 45 | 1012.6 |
| 20260506224025 | 65 | 55 | 7.8 | 14.8 | 0.00 | 0.00 | 0.00 | 45 | 1012.6 |
| 20260506223523 | 66 | 29 | 9.6 | 14.8 | 0.00 | 0.00 | 0.00 | 45 | 1012.6 |
| 20260506223022 | 65 | 72 | 9.6 | 13.9 | 0.00 | 0.00 | 0.00 | 45 | 1012.5 |
| 20260506222522 | 65 | 33 | 7.0 | 14.8 | 0.00 | 0.00 | 0.00 | 44 | 1012.4 |
| 20260506222026 | 66 | 56 | 12.2 | 14.8 | 0.00 | 0.00 | 0.00 | 44 | 1012.3 |
| 20260506221622 | 66 | 49 | 6.1 | 13.9 | 0.00 | 0.00 | 0.00 | 44 | 1012.3 |
| 20260506221021 | 66 | 35 | 8.7 | 14.8 | 0.00 | 0.00 | 0.00 | 44 | 1012.3 |
| 20260506220519 | 65 | 41 | 7.8 | 18.2 | 0.00 | 0.00 | 0.00 | 45 | 1012.2 |
| 20260506220019 | 65 | 57 | 8.7 | 18.2 | 0.00 | 0.00 | 0.00 | 44 | 1012.2 |
| 20260506215518 | 65 | 22 | 8.7 | 13.9 | 0.00 | 0.00 | 0.00 | 46 | 1012.3 |
| 20260506215022 | 65 | 49 | 4.3 | 15.6 | 0.00 | 0.00 | 0.00 | 45 | 1012.3 |
| 20260506214531 | 65 | 35 | 10.4 | 15.6 | 0.00 | 0.00 | 0.00 | 45 | 1012.3 |
| 20260506214018 | 65 | 49 | 9.6 | 16.5 | 0.00 | 0.00 | 0.00 | 45 | 1012.4 |
| 20260506213519 | 65 | 57 | 12.2 | 16.5 | 0.00 | 0.00 | 0.00 | 45 | 1012.5 |
| 20260506213020 | 65 | 5 | 10.4 | 17.4 | 0.00 | 0.00 | 0.00 | 46 | 1012.5 |
| 20260506212517 | 65 | 68 | 10.4 | 17.4 | 0.00 | 0.00 | 0.00 | 44 | 1012.4 |
| 20260506212017 | 65 | 61 | 7.8 | 13.0 | 0.00 | 0.00 | 0.00 | 45 | 1012.4 |
| 20260506211517 | 65 | 34 | 10.4 | 14.8 | 0.00 | 0.00 | 0.00 | 45 | 1012.6 |
| 20260506211016 | 65 | 21 | 10.4 | 14.8 | 0.00 | 0.00 | 0.00 | 45 | 1012.5 |
| 20260506210515 | 65 | 14 | 8.7 | 17.4 | 0.00 | 0.00 | 0.00 | 46 | 1012.5 |
| 20260506210019 | 65 | 54 | 12.2 | 17.4 | 0.00 | 0.00 | 0.00 | 45 | 1012.5 |
| 20260506205514 | 65 | 67 | 13.0 | 15.6 | 0.00 | 0.00 | 0.00 | 45 | 1012.6 |
| 20260506205015 | 65 | 34 | 10.4 | 16.5 | 0.00 | 0.00 | 0.00 | 45 | 1012.6 |
| 20260506204515 | 65 | 355 | 13.0 | 17.4 | 0.00 | 0.00 | 0.00 | 44 | 1012.7 |
| 20260506204016 | 65 | 49 | 11.3 | 15.6 | 0.00 | 0.00 | 0.00 | 46 | 1012.7 |
| 20260506203514 | 65 | 355 | 6.1 | 15.6 | 0.00 | 0.00 | 0.00 | 45 | 1012.8 |
| 20260506203018 | 65 | 30 | 10.4 | 17.4 | 0.00 | 0.00 | 0.00 | 45 | 1012.9 |
| 20260506202513 | 65 | 42 | 11.3 | 17.4 | 0.00 | 0.00 | 0.00 | 46 | 1012.9 |
| 20260506202012 | 65 | 5 | 11.3 | 16.5 | 0.00 | 0.00 | 0.00 | 46 | 1013.0 |
| 20260506201514 | 64 | 17 | 11.3 | 19.1 | 0.00 | 0.00 | 0.00 | 46 | 1012.9 |
| 20260506201016 | 64 | 70 | 9.6 | 20.0 | 0.00 | 0.00 | 0.00 | 46 | 1013.0 |
| 20260506200511 | 65 | 54 | 13.0 | 19.1 | 0.00 | 0.00 | 0.00 | 45 | 1013.1 |
| 20260506200012 | 64 | 32 | 8.7 | 14.8 | 0.00 | 0.00 | 0.00 | 47 | 1013.1 |
| 20260506195510 | 64 | 45 | 8.7 | 21.7 | 0.00 | 0.00 | 0.00 | 46 | 1013.1 |
| 20260506195009 | 64 | 55 | 12.2 | 21.7 | 0.00 | 0.00 | 0.00 | 48 | 1013.1 |
| 20260506194511 | 64 | 34 | 7.8 | 17.4 | 0.00 | 0.00 | 0.00 | 47 | 1013.2 |
| 20260506194007 | 64 | 63 | 7.8 | 13.9 | 0.00 | 0.00 | 0.00 | 48 | 1013.1 |
| 20260506193508 | 63 | 47 | 8.7 | 16.5 | 0.00 | 0.00 | 0.00 | 50 | 1013.1 |
| 20260506193008 | 62 | 74 | 10.4 | 16.5 | 0.00 | 0.00 | 0.00 | 49 | 1013.2 |
| 20260506192507 | 63 | 63 | 9.6 | 15.6 | 0.00 | 0.00 | 0.00 | 48 | 1013.2 |
| 20260506192007 | 63 | 40 | 11.3 | 15.6 | 0.00 | 0.00 | 0.00 | 49 | 1013.2 |
| 20260506191506 | 63 | 24 | 10.4 | 14.8 | 0.00 | 0.00 | 0.00 | 48 | 1013.2 |
| 20260506191007 | 63 | 80 | 9.6 | 14.8 | 0.00 | 0.00 | 0.00 | 49 | 1013.1 |
| 20260506190505 | 63 | 47 | 8.7 | 18.2 | 0.00 | 0.00 | 0.00 | 51 | 1013.2 |
| 20260506190008 | 62 | 40 | 12.2 | 18.2 | 0.00 | 0.00 | 0.00 | 50 | 1013.4 |
| 20260506185502 | 62 | 32 | 7.8 | 15.6 | 0.00 | 0.00 | 0.00 | 53 | 1013.4 |
| 20260506185002 | 62 | 55 | 9.6 | 17.4 | 0.00 | 0.00 | 0.00 | 51 | 1013.4 |
| 20260506184502 | 62 | 82 | 11.3 | 17.4 | 0.00 | 0.00 | 0.00 | 52 | 1013.6 |
| 20260506184001 | 61 | 49 | 9.6 | 17.4 | 0.00 | 0.00 | 0.00 | 52 | 1013.7 |
| 20260506183501 | 61 | 51 | 9.6 | 17.4 | 0.00 | 0.00 | 0.00 | 52 | 1013.7 |
| 20260506183105 | 61 | 64 | 10.4 | 16.5 | 0.00 | 0.00 | 0.00 | 54 | 1013.8 |
| 20260506182559 | 61 | 56 | 9.6 | 15.6 | 0.00 | 0.00 | 0.00 | 54 | 1013.7 |
| 20260506182057 | 60 | 77 | 8.7 | 13.9 | 0.00 | 0.00 | 0.00 | 54 | 1013.8 |
| 20260506181622 | 60 | 30 | 9.6 | 15.6 | 0.00 | 0.00 | 0.00 | 55 | 1014.0 |
| 20260506181056 | 60 | 63 | 7.0 | 16.5 | 0.00 | 0.00 | 0.00 | 55 | 1014.1 |
| 20260506180557 | 60 | 88 | 11.3 | 17.4 | 0.00 | 0.00 | 0.00 | 56 | 1014.0 |
| 20260506180055 | 59 | 88 | 8.7 | 17.4 | 0.00 | 0.00 | 0.00 | 55 | 1014.1 |
| 20260506175554 | 60 | 69 | 9.6 | 17.4 | 0.00 | 0.00 | 0.00 | 55 | 1014.2 |
| 20260506175054 | 59 | 107 | 9.6 | 17.4 | 0.00 | 0.00 | 0.00 | 56 | 1014.2 |
| 20260506174553 | 59 | 90 | 8.7 | 16.5 | 0.00 | 0.00 | 0.00 | 58 | 1014.3 |
| 20260506174052 | 59 | 55 | 10.4 | 16.5 | 0.00 | 0.00 | 0.00 | 58 | 1014.4 |
| 20260506173551 | 58 | 66 | 8.7 | 15.6 | 0.00 | 0.00 | 0.00 | 60 | 1014.4 |
| 20260506173059 | 58 | 91 | 10.4 | 15.6 | 0.00 | 0.00 | 0.00 | 59 | 1014.5 |
| 20260506172549 | 58 | 108 | 8.7 | 13.9 | 0.00 | 0.00 | 0.00 | 60 | 1014.5 |
| 20260506172049 | 58 | 69 | 7.8 | 15.6 | 0.00 | 0.00 | 0.00 | 59 | 1014.5 |
| 20260506171548 | 58 | 65 | 10.4 | 15.6 | 0.00 | 0.00 | 0.00 | 59 | 1014.6 |
| 20260506171048 | 58 | 98 | 8.7 | 15.6 | 0.00 | 0.00 | 0.00 | 60 | 1014.6 |
| 20260506170547 | 58 | 64 | 7.8 | 15.6 | 0.00 | 0.00 | 0.00 | 61 | 1014.7 |
| 20260506170049 | 57 | 71 | 12.2 | 16.5 | 0.00 | 0.00 | 0.00 | 62 | 1014.7 |
| 20260506165545 | 57 | 92 | 8.7 | 17.4 | 0.00 | 0.00 | 0.00 | 61 | 1014.6 |
| 20260506165045 | 57 | 86 | 10.4 | 17.4 | 0.00 | 0.00 | 0.00 | 63 | 1014.5 |
| 20260506164547 | 56 | 66 | 11.3 | 17.4 | 0.00 | 0.00 | 0.00 | 62 | 1014.5 |
| 20260506164043 | 56 | 57 | 8.7 | 17.4 | 0.00 | 0.00 | 0.00 | 62 | 1014.4 |
| 20260506163543 | 56 | 77 | 9.6 | 19.1 | 0.00 | 0.00 | 0.00 | 63 | 1014.6 |
| 20260506163043 | 56 | 92 | 12.2 | 19.1 | 0.00 | 0.00 | 0.00 | 64 | 1014.5 |
| 20260506162540 | 56 | 69 | 8.7 | 16.5 | 0.00 | 0.00 | 0.00 | 63 | 1014.5 |
| 20260506162040 | 56 | 65 | 12.2 | 18.2 | 0.00 | 0.00 | 0.00 | 64 | 1014.5 |
| 20260506161539 | 56 | 95 | 10.4 | 18.2 | 0.00 | 0.00 | 0.00 | 63 | 1014.5 |
| 20260506161039 | 55 | 74 | 10.4 | 20.0 | 0.00 | 0.00 | 0.00 | 63 | 1014.6 |
| 20260506160538 | 55 | 57 | 13.0 | 20.0 | 0.00 | 0.00 | 0.00 | 64 | 1014.6 |
| 20260506160037 | 55 | 71 | 13.0 | 18.2 | 0.00 | 0.00 | 0.00 | 65 | 1014.7 |
| 20260506155538 | 55 | 87 | 13.0 | 18.2 | 0.00 | 0.00 | 0.00 | 64 | 1014.6 |
| 20260506155035 | 54 | 24 | 11.3 | 17.4 | 0.00 | 0.00 | 0.00 | 65 | 1014.5 |
| 20260506154535 | 55 | 44 | 12.2 | 18.2 | 0.00 | 0.00 | 0.00 | 65 | 1014.5 |
| 20260506154034 | 54 | 76 | 13.0 | 19.1 | 0.00 | 0.00 | 0.00 | 66 | 1014.6 |
| 20260506153532 | 54 | 80 | 13.9 | 19.1 | 0.00 | 0.00 | 0.00 | 66 | 1014.5 |
| 20260506153036 | 53 | 52 | 12.2 | 19.1 | 0.00 | 0.00 | 0.00 | 67 | 1014.4 |
| 20260506152530 | 53 | 59 | 12.2 | 19.1 | 0.00 | 0.00 | 0.00 | 69 | 1014.4 |
| 20260506152031 | 53 | 57 | 14.8 | 19.1 | 0.00 | 0.00 | 0.00 | 67 | 1014.6 |
| 20260506151531 | 53 | 70 | 13.9 | 19.1 | 0.00 | 0.00 | 0.00 | 68 | 1014.6 |
| 20260506151033 | 53 | 80 | 13.0 | 17.4 | 0.00 | 0.00 | 0.00 | 67 | 1014.6 |
| 20260506150530 | 53 | 63 | 13.0 | 19.1 | 0.00 | 0.00 | 0.00 | 67 | 1014.5 |
| 20260506150032 | 53 | 53 | 13.0 | 20.9 | 0.00 | 0.00 | 0.00 | 67 | 1014.3 |
| 20260506145527 | 53 | 102 | 13.0 | 20.9 | 0.00 | 0.00 | 0.00 | 68 | 1014.2 |
| 20260506145025 | 52 | 65 | 14.8 | 20.9 | 0.00 | 0.00 | 0.00 | 69 | 1014.2 |
| 20260506144526 | 52 | 63 | 16.5 | 20.9 | 0.00 | 0.00 | 0.00 | 70 | 1014.1 |
| 20260506144023 | 52 | 61 | 15.6 | 20.9 | 0.00 | 0.00 | 0.00 | 70 | 1014.0 |
| 20260506143522 | 52 | 65 | 13.9 | 20.9 | 0.00 | 0.00 | 0.00 | 70 | 1013.9 |
| 20260506143022 | 51 | 54 | 14.8 | 20.9 | 0.00 | 0.00 | 0.00 | 72 | 1013.7 |
| 20260506142519 | 51 | 46 | 16.5 | 20.9 | 0.00 | 0.00 | 0.00 | 72 | 1013.7 |
| 20260506142017 | 51 | 63 | 14.8 | 20.0 | 0.00 | 0.00 | 0.00 | 72 | 1013.6 |
| 20260506141517 | 50 | 55 | 14.8 | 20.9 | 0.00 | 0.00 | 0.00 | 73 | 1013.6 |
| 20260506141018 | 50 | 49 | 13.9 | 20.9 | 0.00 | 0.00 | 0.00 | 73 | 1013.6 |
| 20260506140516 | 50 | 66 | 13.9 | 19.1 | 0.00 | 0.00 | 0.00 | 73 | 1013.5 |
| 20260506140017 | 50 | 65 | 12.2 | 22.6 | 0.00 | 0.00 | 0.00 | 74 | 1013.4 |
| 20260506135514 | 50 | 65 | 16.5 | 22.6 | 0.00 | 0.00 | 0.00 | 74 | 1013.4 |
| 20260506135115 | 50 | 62 | 13.9 | 19.1 | 0.00 | 0.00 | 0.00 | 75 | 1013.4 |
| 20260506134514 | 49 | 46 | 13.9 | 23.5 | 0.00 | 0.00 | 0.00 | 75 | 1013.4 |
| 20260506134019 | 49 | 62 | 13.9 | 20.0 | 0.00 | 0.00 | 0.00 | 75 | 1013.4 |
| 20260506133514 | 49 | 57 | 13.0 | 20.9 | 0.00 | 0.00 | 0.00 | 75 | 1013.3 |
| 20260506133014 | 49 | 54 | 14.8 | 20.9 | 0.00 | 0.00 | 0.00 | 75 | 1013.3 |
| 20260506132513 | 49 | 48 | 13.9 | 18.2 | 0.00 | 0.00 | 0.00 | 76 | 1013.4 |
| 20260506132013 | 49 | 51 | 13.0 | 18.2 | 0.00 | 0.00 | 0.00 | 76 | 1013.4 |
| 20260506131523 | 49 | 49 | 10.4 | 20.0 | 0.00 | 0.00 | 0.00 | 76 | 1013.5 |
| 20260506131014 | 49 | 49 | 15.6 | 20.0 | 0.00 | 0.00 | 0.00 | 76 | 1013.5 |
| 20260506130514 | 49 | 46 | 12.2 | 17.4 | 0.00 | 0.00 | 0.00 | 77 | 1013.4 |
| 20260506130012 | 49 | 54 | 9.6 | 17.4 | 0.00 | 0.00 | 0.00 | 77 | 1013.4 |
| 20260506125512 | 49 | 34 | 11.3 | 17.4 | 0.00 | 0.00 | 0.00 | 77 | 1013.4 |
| 20260506125011 | 49 | 31 | 10.4 | 15.6 | 0.00 | 0.00 | 0.00 | 78 | 1013.3 |
| 20260506124511 | 49 | 50 | 8.7 | 14.8 | 0.00 | 0.00 | 0.00 | 78 | 1013.3 |
| 20260506124015 | 49 | 48 | 10.4 | 14.8 | 0.00 | 0.00 | 0.00 | 79 | 1013.4 |
| 20260506123511 | 48 | 51 | 7.8 | 14.8 | 0.00 | 0.00 | 0.00 | 79 | 1013.3 |
| 20260506123010 | 48 | 46 | 10.4 | 14.8 | 0.00 | 0.00 | 0.00 | 80 | 1013.3 |
| 20260506122510 | 48 | 32 | 9.6 | 13.0 | 0.00 | 0.00 | 0.00 | 80 | 1013.3 |
| 20260506122010 | 48 | 24 | 8.7 | 11.3 | 0.00 | 0.00 | 0.00 | 81 | 1013.3 |
| 20260506121508 | 47 | 24 | 8.7 | 11.3 | 0.00 | 0.00 | 0.00 | 81 | 1013.2 |
| 20260506121009 | 47 | 33 | 7.0 | 11.3 | 0.00 | 0.00 | 0.00 | 81 | 1013.2 |
| 20260506120508 | 47 | 44 | 7.8 | 10.4 | 0.00 | 0.00 | 0.00 | 81 | 1013.1 |
| 20260506120015 | 47 | 42 | 7.0 | 10.4 | 0.00 | 0.00 | 0.00 | 81 | 1013.0 |
| 20260506115506 | 47 | 43 | 7.0 | 10.4 | 0.00 | 0.00 | 0.00 | 81 | 1012.8 |
| 20260506115004 | 47 | 57 | 7.0 | 9.6 | 0.00 | 0.00 | 0.00 | 81 | 1012.6 |
| 20260506114511 | 47 | 42 | 6.1 | 9.6 | 0.00 | 0.00 | 0.00 | 81 | 1012.6 |
| 20260506114003 | 47 | 46 | 6.1 | 10.4 | 0.00 | 0.00 | 0.00 | 80 | 1012.5 |
| 20260506113503 | 47 | 51 | 6.1 | 11.3 | 0.00 | 0.00 | 0.00 | 80 | 1012.2 |
| 20260506113008 | 47 | 55 | 7.8 | 11.3 | 0.00 | 0.00 | 0.00 | 80 | 1012.0 |
| 20260506112501 | 47 | 53 | 7.8 | 11.3 | 0.00 | 0.00 | 0.00 | 80 | 1012.0 |
| 20260506112001 | 47 | 59 | 6.1 | 11.3 | 0.00 | 0.00 | 0.00 | 80 | 1011.9 |
| 20260506111501 | 47 | 57 | 6.1 | 10.4 | 0.00 | 0.00 | 0.00 | 79 | 1012.0 |
| 20260506111101 | 47 | 59 | 6.1 | 10.4 | 0.00 | 0.00 | 0.00 | 79 | 1012.0 |
| 20260506110600 | 47 | 44 | 7.0 | 11.3 | 0.00 | 0.00 | 0.00 | 79 | 1012.1 |
| 20260506110100 | 48 | 49 | 7.0 | 12.2 | 0.00 | 0.00 | 0.00 | 78 | 1011.9 |
| 20260506105559 | 48 | 54 | 6.1 | 12.2 | 0.00 | 0.00 | 0.00 | 78 | 1011.8 |
| 20260506105100 | 48 | 50 | 7.8 | 11.3 | 0.00 | 0.00 | 0.00 | 78 | 1011.6 |
| 20260506104601 | 48 | 55 | 7.8 | 13.0 | 0.00 | 0.00 | 0.00 | 77 | 1011.8 |
| 20260506104058 | 48 | 54 | 11.3 | 17.4 | 0.00 | 0.00 | 0.00 | 77 | 1011.4 |
| 20260506103557 | 48 | 58 | 10.4 | 14.8 | 0.00 | 0.00 | 0.00 | 77 | 1011.3 |
| 20260506103057 | 48 | 48 | 10.4 | 14.8 | 0.00 | 0.00 | 0.00 | 76 | 1011.1 |
| 20260506102556 | 48 | 42 | 9.6 | 13.9 | 0.00 | 0.00 | 0.00 | 76 | 1011.4 |
| 20260506102055 | 48 | 62 | 8.7 | 13.9 | 0.00 | 0.00 | 0.00 | 75 | 1011.8 |
| 20260506102026 | 48 | 57 | 9.6 | 13.9 | 0.00 | 0.00 | 0.00 | 75 | 1011.7 |
| 20260506101654 | 49 | 46 | 8.7 | 13.9 | 0.00 | 0.00 | 0.00 | 75 | 1011.8 |
| 20260506101053 | 49 | 47 | 9.6 | 15.6 | 0.00 | 0.00 | 0.00 | 74 | 1011.5 |
| 20260506100553 | 49 | 52 | 12.2 | 15.6 | 0.00 | 0.00 | 0.00 | 73 | 1011.6 |
| 20260506100051 | 49 | 34 | 10.4 | 14.8 | 0.00 | 0.00 | 0.00 | 72 | 1011.8 |
| 20260506095552 | 49 | 59 | 8.7 | 13.0 | 0.00 | 0.00 | 0.00 | 72 | 1011.9 |
| 20260506095051 | 49 | 38 | 8.7 | 13.9 | 0.00 | 0.00 | 0.00 | 71 | 1012.2 |
| 20260506094551 | 49 | 42 | 11.3 | 15.6 | 0.00 | 0.00 | 0.00 | 71 | 1012.3 |
| 20260506094050 | 49 | 40 | 9.6 | 15.6 | 0.00 | 0.00 | 0.00 | 71 | 1012.4 |
| 20260506093550 | 49 | 44 | 8.7 | 13.9 | 0.00 | 0.00 | 0.00 | 71 | 1012.5 |
| 20260506093049 | 49 | 58 | 7.0 | 12.2 | 0.00 | 0.00 | 0.00 | 70 | 1012.1 |
| 20260506092548 | 49 | 42 | 8.7 | 13.9 | 0.00 | 0.00 | 0.00 | 70 | 1011.8 |
| 20260506092047 | 49 | 57 | 9.6 | 13.9 | 0.00 | 0.00 | 0.00 | 69 | 1011.8 |
| 20260506091553 | 49 | 51 | 10.4 | 13.9 | 0.00 | 0.00 | 0.00 | 69 | 1011.7 |
| 20260506091046 | 50 | 61 | 7.8 | 13.0 | 0.00 | 0.00 | 0.00 | 69 | 1011.8 |
| 20260506090548 | 50 | 59 | 7.8 | 13.9 | 0.00 | 0.00 | 0.00 | 69 | 1011.6 |
| 20260506090053 | 50 | 56 | 8.7 | 15.6 | 0.00 | 0.00 | 0.00 | 68 | 1011.7 |
| 20260506085544 | 49 | 61 | 11.3 | 15.6 | 0.00 | 0.00 | 0.00 | 68 | 1011.3 |
| 20260506085045 | 50 | 57 | 10.4 | 13.9 | 0.00 | 0.00 | 0.00 | 67 | 1011.2 |
| 20260506084547 | 50 | 55 | 11.3 | 13.9 | 0.00 | 0.00 | 0.00 | 67 | 1011.1 |